Weather in Ivanovka

Russia / Amur Oblast     50°21′40″N   127°59′55″E
temp.,
°C
wind,
m/s
gust,
m/s
humid.,
%
clouds,
%
prec.,
mm/h
press.,
hPa
HPBL,
m
29 january, fri
fri2900:00−32nw239788 0.0 102319
03:00−33nw239793 0.0 102321
06:00−34nw239875 0.0 102319
09:00−34wnw129681 0.0 102519
12:00−29nw23842 0.0 1024258
15:00−27nw12821 0.0 1023315
18:00−32se22880 0.0 102619
21:00−33nnw019229 0.0 102719
30 january, sat
sat3000:00−34n129564 0.0 102819
03:00−35n239365 0.0 102919
06:00−36nw23900 0.0 103020
09:00−36nnw33900 0.0 103143
12:00−31nw34900 0.0 1031298
15:00−29nw258815 0.0 1030425
18:00−33nw119410 0.0 103119
21:00−34wsw22925 0.0 103219
31 january, sun
sun3100:00−34sw12960 0.0 103219
03:00−35sw12990 0.0 103219
06:00−36s12990 0.0 103119
09:00−35sse22970 0.0 103119
12:00−30s229226 0.0 1030178
15:00−28se229243 0.0 1028224
18:00−32ese229512 0.0 102919
21:00−34ene119622 0.0 102919
1 february, mon
mon100:00−35ne129721 0.0 102819
03:00−35nne239722 0.0 102719
06:00−37n33998 0.0 102630
09:00−37n339812 0.0 102654
12:00−31nnw46936 0.0 1023351
15:00−28nnw488347 0.0 1021905
18:00−32n338994 0.0 102219
21:00−34nw239076 0.0 102219
2 february, tue
tue200:00−35wnw239326 0.0 102119
03:00−36wnw339454 0.0 102131
06:00−36nw349367 0.0 102054
09:00−37nw339366 0.0 102147
12:00−33nnw36905 0.0 1021401
15:00−28nw378452 0.0 1021957
18:00−30wnw1294100 0.0 102119
21:00−31wsw229598 0.0 102119